This is the latest recevied weather packets stored in our database for station/object KA6AKH-WX. If no packets are shown the sender has not sent any weather packets the latest 10 day(s).
| Time | Temp. | Humidity | Pressure | Rain* | Wind** | Luminosity | Snow |
|---|---|---|---|---|---|---|---|
| 1788209997 | 29.44° C | 68% | 1018.1 hPa | 0 mm | - | - | - |
| 1788209399 | 30° C | 67% | 1018.1 hPa | 0 mm | - | - | - |
| 1788208797 | 30° C | 66% | 1018.2 hPa | 0 mm | - | - | - |
| 1788207597 | 30° C | 65% | 1018.2 hPa | 0 mm | - | - | - |
| 1788206996 | 30° C | 66% | 1018.2 hPa | 0 mm | - | - | - |
| 1788206396 | 30° C | 66% | 1018.2 hPa | 0 mm | - | - | - |
| 1788205796 | 30° C | 66% | 1018.2 hPa | 0 mm | - | - | - |
| 1788205196 | 30° C | 66% | 1018.1 hPa | 0 mm | - | - | - |
| 1788204597 | 30° C | 64% | 1018.4 hPa | 0 mm | - | - | - |
| 1788203996 | 30° C | 63% | 1018.6 hPa | 0 mm | - | - | - |
| 1788203397 | 30° C | 64% | 1018.7 hPa | 0 mm | - | - | - |
| 1788202766 | 30.56° C | 63% | 1018.7 hPa | 0 mm | - | - | - |
| 1788202166 | 30.56° C | 64% | 1018.8 hPa | 0 mm | - | - | - |
| 1788201567 | 30.56° C | 63% | 1018.7 hPa | 0 mm | - | - | - |
| 1788200966 | 30.56° C | 61% | 1018.8 hPa | 0 mm | - | - | - |
| 1788200366 | 30.56° C | 61% | 1018.8 hPa | 0 mm | - | - | - |
| 1788199166 | 30.56° C | 62% | 1018.8 hPa | 0 mm | - | - | - |
| 1788198566 | 30.56° C | 67% | 1018.8 hPa | 0 mm | - | - | - |
| 1788197966 | 30° C | 67% | 1019.1 hPa | 0 mm | - | - | - |
| 1788197366 | 30° C | 66% | 1019.1 hPa | 0 mm | - | - | - |
| 1788196766 | 30° C | 66% | 1019.1 hPa | 0 mm | - | - | - |
| 1788195566 | 29.44° C | 70% | 1019.5 hPa | 0 mm | - | - | - |
| 1788194966 | 29.44° C | 70% | 1019.5 hPa | 0 mm | - | - | - |
| 1788194366 | 28.89° C | 71% | 1019.6 hPa | 0 mm | - | - | - |
| 1788193766 | 28.89° C | 71% | 1019.7 hPa | 0 mm | - | - | - |
* Rain latest hour (hover to see other rain measurements)
** Current wind speed in m/s (hover to see current wind gust speed)